Wakefield, VA

10:53 AM EDT on August 23, 2017 (GMT -0400)
Wakefield Municipal

Weather History for KAKQ - November, 2013

Change the Weather History Date:

Saturday, November 23, 2013

  Actual Average (KJGG) Record (KJGG)
Temperature  
Mean Temperature 50 °F -  
Max Temperature 62 °F 57 °F 78 °F (1979)
Min Temperature 37 °F 35 °F 20 °F (1987)
Degree Days  
Heating Degree Days 16    
Moisture  
Dew Point 38 °F    
Average Humidity 64    
Maximum Humidity 93    
Minimum Humidity 23    
Precipitation  
Precipitation 0.00 in - - ()
Sea Level Pressure  
Sea Level Pressure 30.07 in    
Wind  
Wind Speed 4 mph (North)    
Max Wind Speed 10 mph    
Max Gust Speed 20 mph    
Visibility 9 miles    
Events      
Averages and records for this station are not official NWS values.
T = Trace of Precipitation, MM = Missing Value Source: NWS Daily Summary

Daily Weather History Graph

Daily Weather History Graph

Search for Another Location

Airport or City:

Trip Planner

Search our weather history database for the weather conditions in past years. The results will help you decide how hot, cold, wet, or windy it might be!

Date:

Astronomy

Nov. 23, 2013 Rise Set
Actual Time 6:54 AM EST 4:53 PM EST
Civil Twilight 6:26 AM EST 5:21 PM EST
Nautical Twilight 5:55 AM EST 5:53 PM EST
Astronomical Twilight 5:23 AM EST 6:24 PM EST
Moon 10:17 PM EST 11:13 AM EST
Length of Visible Light 10h 55m
Length of Day
9h 58m
Waning Gibbous, 70% of the Moon is Illuminated
Nov 23
Waning Gibbous
Nov 25
Last Quarter
Dec 2
New
Dec 9
First Quarter
Dec 17
Full

Hourly Weather History & Observations

Time (EST) Temp. Windchill Dew Point Humidity Pressure Visibility Wind Dir Wind Speed Gust Speed Precip Events Conditions
12:54 AM 62.1 °F - 59.0 °F 90% 30.03 in 8.0 mi WSW 4.6 mph - N/A   Overcast
1:54 AM 61.0 °F - 59.0 °F 93% 30.02 in 7.0 mi West 4.6 mph - N/A   Partly Cloudy
2:54 AM 61.0 °F - 57.9 °F 90% 30.03 in 7.0 mi WSW 3.5 mph - N/A   Mostly Cloudy
3:51 AM 60.8 °F - 57.2 °F 88% 30.03 in 7.0 mi Calm Calm - N/A   Mostly Cloudy
3:54 AM 61.0 °F - 57.0 °F 87% 30.03 in 6.0 mi Calm Calm - N/A   Mostly Cloudy
4:54 AM 60.1 °F - 55.9 °F 86% 30.04 in 8.0 mi NNE 5.8 mph - N/A   Overcast
5:54 AM 55.9 °F - 48.0 °F 75% 30.07 in 10.0 mi NNE 6.9 mph 19.6 mph N/A   Overcast
6:24 AM 55.0 °F - 46.9 °F 74% 30.08 in 10.0 mi NNE 4.6 mph - N/A   Overcast
6:54 AM 55.0 °F - 44.1 °F 67% 30.09 in 10.0 mi Variable 5.8 mph 16.1 mph N/A   Overcast
7:54 AM 52.0 °F - 43.0 °F 71% 30.12 in 10.0 mi NNE 5.8 mph - N/A   Overcast
8:54 AM 54.0 °F - 39.0 °F 57% 30.12 in 10.0 mi North 6.9 mph - N/A   Mostly Cloudy
9:54 AM 54.0 °F - 37.0 °F 53% 30.14 in 10.0 mi NNE 8.1 mph - N/A   Partly Cloudy
10:54 AM 55.9 °F - 33.1 °F 42% 30.12 in 10.0 mi North 10.4 mph 17.3 mph N/A   Clear
11:54 AM 55.9 °F - 30.9 °F 39% 30.10 in 10.0 mi Variable 6.9 mph - N/A   Scattered Clouds
12:54 PM 57.9 °F - 24.1 °F 27% 30.07 in 10.0 mi North 5.8 mph - N/A   Clear
1:54 PM 55.0 °F - 24.1 °F 30% 30.05 in 10.0 mi North 8.1 mph - N/A   Clear
2:54 PM 55.0 °F - 18.0 °F 23% 30.04 in 10.0 mi North 6.9 mph - N/A   Clear
3:54 PM 53.1 °F - 27.0 °F 37% 30.05 in 10.0 mi Calm Calm - N/A   Mostly Cloudy
4:54 PM 45.0 °F - 34.0 °F 65% 30.04 in 10.0 mi Calm Calm - N/A   Clear
5:54 PM 39.9 °F - 33.1 °F 77% 30.04 in 10.0 mi Calm Calm - N/A   Clear
6:54 PM 39.0 °F - 32.0 °F 76% 30.06 in 10.0 mi Calm Calm - N/A   Clear
7:54 PM 37.0 °F - 32.0 °F 82% 30.06 in 10.0 mi Calm Calm - N/A   Clear
8:54 PM 39.9 °F 35.8 °F 28.9 °F 65% 30.07 in 10.0 mi NNE 5.8 mph - N/A   Clear
9:54 PM 43.0 °F 41.3 °F 27.0 °F 53% 30.11 in 10.0 mi North 3.5 mph - N/A   Clear
10:54 PM 42.1 °F 38.4 °F 27.0 °F 55% 30.12 in 10.0 mi North 5.8 mph - N/A   Clear
11:54 PM 39.9 °F 37.8 °F 25.0 °F 55% 30.14 in 10.0 mi Variable 3.5 mph - N/A   Clear